Theta_e
333 339 341 340 341 343 344 339 334 336 335 330 325 318 318 316 314 314 313 313 312 313 314 318 323 327 329 329 330 332 334 335 337 338 338 338 338 339 340 341 341 338 335
339 343 342 342 342 341 342 340 334 333 329 326 321 318 317 314 312 312 312 311 311 311 311 313 316 325 329 330 330 331 331 332 333 333 333 334 335 336 336 337 340 341 340
345 342 343 342 341 342 341 338 332 329 325 323 319 318 314 312 312 313 312 311 310 310 310 318 321 328 329 329 328 328 333 334 335 335 335 335 336 335 335 335 336 337 341
342 340 340 341 341 340 339 338 329 326 323 319 318 315 313 314 314 313 312 310 310 310 309 310 320 324 326 326 323 325 329 330 333 334 334 333 332 336 336 336 336 336 338
339 342 339 340 338 334 332 329 326 323 318 318 316 313 314 314 314 314 313 314 311 310 310 309 310 314 318 323 325 326 326 326 328 328 329 330 330 331 335 336 336 336 337
337 336 337 337 333 328 327 325 322 318 317 316 314 314 314 314 314 314 313 313 313 310 310 310 311 315 320 324 324 324 323 320 321 323 327 330 331 331 331 333 335 335 335
336 335 335 335 331 327 324 320 316 314 313 313 314 314 315 314 314 313 314 314 313 311 311 311 313 322 324 324 324 324 323 320 323 322 328 331 333 332 332 332 332 334 335
333 332 333 331 328 326 323 320 314 313 314 314 314 314 314 314 314 314 314 313 313 311 311 314 316 318 320 322 325 323 321 323 323 321 318 322 330 330 331 331 332 332 330
335 334 333 331 329 328 326 319 317 318 317 316 315 314 314 314 313 314 313 313 312 311 312 316 319 321 320 320 321 322 322 322 320 319 317 316 317 325 329 329 330 327 326
332 332 331 331 330 328 326 322 320 321 322 320 319 315 314 314 315 316 315 314 313 312 312 314 319 320 320 320 322 322 322 318 317 317 317 317 316 321 324 326 327 326 325
329 330 330 328 325 322 324 325 324 323 322 320 317 315 314 314 315 317 317 315 314 313 314 316 315 318 320 321 319 320 318 316 316 317 317 318 320 321 322 324 324 324 323
328 328 327 326 324 322 322 321 321 321 320 317 315 314 315 315 315 316 317 315 314 315 316 315 314 316 318 318 317 317 316 315 316 316 316 317 320 322 324 324 326 326 326
322 322 322 322 322 322 322 321 321 320 319 316 315 314 313 313 314 314 315 316 316 317 317 315 315 315 316 316 316 316 315 315 315 315 315 316 317 318 320 321 323 326 327
322 322 322 322 322 322 321 321 320 319 317 316 315 314 314 313 311 311 313 314 315 315 315 314 315 314 315 316 314 315 314 314 314 313 315 316 316 318 318 318 320 321 324
319 322 322 321 321 321 320 319 318 317 316 314 314 313 313 312 311 309 309 312 312 313 314 314 314 315 314 313 314 313 313 313 312 311 312 314 315 317 316 318 319 319 320
313 315 319 322 320 320 319 318 317 316 315 315 314 313 312 311 308 307 309 311 312 314 312 312 314 313 313 312 311 310 310 310 310 309 310 311 312 312 313 315 315 316 316
310 313 316 318 318 318 318 317 317 315 315 314 313 311 310 309 308 306 308 311 313 312 311 311 311 311 310 309 308 307 307 307 307 307 307 307 308 309 309 311 311 312 312
303 308 312 313 313 314 314 313 313 314 313 312 312 311 309 308 307 308 311 312 311 310 309 309 308 307 307 307 306 306 305 305 305 305 305 304 304 304 304 305 306 308 308
301 302 304 308 311 311 311 311 311 312 311 308 309 308 309 307 307 310 310 309 308 307 306 306 306 306 305 304 304 304 304 304 304 304 303 303 303 302 302 302 302 302 303
301 302 303 304 305 310 310 311 309 308 307 308 307 307 307 306 308 306 306 306 306 305 305 304 304 303 303 302 302 301 301 301 301 301 301 301 301 300 301 301 300 301 303
303 305 306 308 308 309 307 307 306 305 305 306 306 306 306 307 303 303 305 305 304 304 303 303 302 302 302 301 301 301 301 300 300 300 300 301 300 300 300 300 301 302 302
301 304 305 305 306 306 304 303 303 303 303 305 306 306 305 301 301 300 303 304 303 302 302 301 301 301 301 301 300 301 301 301 301 300 299 300 300 299 300 300 302 302 303
301 302 302 302 303 303 303 304 304 304 305 305 306 304 301 300 300 301 301 301 300 300 301 301 301 301 300 300 300 300 300 300 301 301 300 300 300 300 301 301 302 302 303
302 302 302 302 303 305 305 305 305 306 307 306 302 301 301 301 301 301 301 301 301 301 301 301 301 300 300 300 301 300 300 300 299 300 299 300 300 300 300 301 301 301 302
301 301 303 304 305 306 307 308 308 306 304 303 301 301 301 301 302 302 302 302 302 301 302 302 302 302 302 302 301 302 300 300 299 299 298 299 299 300 301 301 301 301 302
302 302 302 303 303 303 304 304 305 305 302 301 300 301 301 302 301 301 301 301 302 303 302 302 301 300 299 299 300 300 300 299 299 299 298 299 299 300 300 301 301 301 303
Wind_Speed
10 10 10 11 10 12 12 9 7 6 3 2 3 5 6 10 11 14 16 17 18 19 19 19 19 18 18 19 20 21 21 21 22 25 27 28 29 30 31 31 31 32 31
10 10 12 13 15 12 11 10 10 7 5 5 6 7 10 12 13 15 17 19 19 18 19 18 17 17 17 17 17 18 22 24 24 25 27 29 31 30 30 32 33 34 32
11 14 14 13 15 14 13 11 10 9 7 8 9 10 12 11 13 16 19 20 19 19 18 17 16 17 17 18 17 17 18 20 22 23 24 25 29 31 32 31 33 31 32
13 16 17 16 16 13 15 13 11 10 10 11 12 12 11 12 14 16 17 17 21 22 20 18 19 19 20 20 20 19 18 20 21 23 23 24 24 27 31 31 32 33 32
15 16 16 13 8 9 9 11 11 12 14 14 14 13 13 15 14 15 14 22 20 23 19 19 19 19 18 16 17 19 22 24 24 25 27 28 29 29 27 28 27 29 31
13 12 10 12 10 10 9 10 12 14 14 16 16 15 16 16 17 15 21 14 22 19 21 20 19 18 17 17 18 19 21 23 23 24 24 26 28 30 31 31 30 30 31
11 9 10 10 10 11 10 9 9 11 12 13 15 18 19 18 17 14 21 21 21 23 21 20 17 19 20 19 21 22 24 21 21 23 24 24 26 28 30 31 31 31 31
13 15 14 13 12 12 11 12 10 10 13 16 18 19 15 22 15 28 20 29 25 28 22 17 17 19 21 23 24 26 26 24 25 26 26 27 27 28 28 29 30 30 30
12 15 18 18 16 17 17 12 10 16 18 20 22 17 9 11 25 23 27 21 30 29 23 18 16 19 20 22 24 25 27 28 28 28 29 29 31 33 32 33 34 34 34
14 15 17 21 22 21 21 19 18 29 36 35 29 22 19 17 10 13 15 30 28 31 30 23 18 23 23 24 24 27 28 30 29 30 31 30 30 31 34 36 37 37 36
17 18 20 19 18 19 22 24 23 26 26 27 26 24 18 18 17 15 23 31 38 35 28 25 27 26 24 23 27 29 34 28 29 27 27 26 25 24 27 29 32 35 34
17 21 21 20 21 23 24 21 20 21 22 20 19 17 16 19 24 23 28 32 35 36 34 26 30 24 28 30 29 27 28 28 25 27 27 26 18 16 17 18 20 22 22
19 20 23 25 25 25 25 25 22 23 23 20 19 18 18 20 21 24 27 30 31 32 30 27 25 23 30 36 27 28 26 29 26 24 24 22 17 15 13 13 11 9 9
21 22 25 27 28 28 27 27 27 26 23 21 20 19 20 20 21 22 25 25 32 32 26 23 22 28 28 27 33 29 30 24 18 18 19 16 13 13 15 15 11 11 10
25 27 27 27 27 27 27 26 25 22 19 20 21 21 21 24 24 25 24 25 25 29 27 21 27 19 26 32 27 29 23 18 16 15 17 12 10 9 14 10 6 6 9
27 26 27 28 28 30 29 26 24 22 25 23 20 20 21 24 26 27 26 25 25 26 26 27 23 28 25 26 22 18 16 15 13 11 16 15 11 8 8 8 7 5 6
28 25 24 25 25 27 27 27 28 27 21 21 18 20 25 25 29 30 25 23 24 23 25 25 23 21 22 21 15 12 11 10 10 12 14 15 12 11 9 9 9 9 8
31 31 27 26 28 25 25 27 26 28 21 19 21 27 29 31 30 25 22 22 22 22 20 21 20 15 12 10 10 10 9 9 10 12 13 11 10 9 8 7 7 8 10
24 23 31 28 23 22 22 23 23 19 18 17 22 26 31 31 28 20 19 18 18 14 10 10 9 6 6 7 8 8 8 8 12 10 13 10 9 8 9 8 9 9 9
21 20 18 19 23 18 19 18 14 16 23 29 29 25 28 23 18 15 10 8 4 2 3 2 2 4 5 7 8 10 10 9 11 12 12 13 8 8 7 9 12 11 8
15 8 8 6 11 13 16 18 15 17 21 24 21 21 17 15 9 7 4 2 3 4 3 4 6 4 5 8 9 10 11 11 12 15 18 8 8 9 8 9 10 8 7
13 11 8 8 11 13 17 18 19 22 20 16 15 14 9 3 0 1 1 4 3 4 3 5 5 5 5 7 9 10 10 11 13 14 19 6 6 9 8 8 10 10 8
11 11 11 12 12 15 18 18 15 12 13 13 12 10 5 7 11 9 9 7 8 9 9 9 8 8 9 11 11 11 10 11 13 15 18 10 7 9 6 6 9 11 8
8 9 11 12 10 13 11 10 10 10 9 4 14 12 11 9 10 11 10 9 8 8 8 9 9 9 10 12 13 11 11 12 12 10 19 8 9 8 4 5 9 10 7
8 9 8 9 9 11 11 9 7 8 21 20 15 15 14 8 6 5 4 5 5 5 6 8 9 10 11 12 12 11 12 16 17 11 20 13 9 8 4 5 9 9 8
14 15 17 19 20 23 26 24 17 22 22 20 13 13 9 7 7 6 7 7 4 2 4 6 9 9 13 14 12 11 10 14 16 10 19 16 8 10 4 4 8 8 10
Wind_Direction
250 247 246 241 232 233 223 218 205 202 225 234 296 327 329 329 330 328 325 322 314 308 302 297 294 294 295 288 280 278 277 278 276 274 271 273 273 271 273 273 269 268 270
258 267 269 264 253 259 239 223 215 219 226 255 275 306 316 321 326 328 327 323 317 310 307 301 292 286 286 288 291 283 276 275 272 273 276 274 272 271 273 271 272 268 266
273 282 279 276 259 251 239 211 220 220 248 265 278 294 307 317 328 333 337 335 324 318 311 300 288 281 284 290 297 293 285 280 275 276 280 281 279 271 269 269 270 270 269
273 280 275 269 267 251 236 238 222 241 258 268 281 298 306 318 328 334 339 346 327 321 316 300 290 288 290 291 291 288 285 282 280 277 278 277 286 281 271 270 270 263 263
270 270 270 260 256 229 214 222 240 258 265 274 284 292 304 314 317 328 338 336 339 328 318 311 301 292 292 287 291 291 290 288 289 287 281 278 276 278 276 271 269 266 260
276 268 255 247 221 225 230 242 259 267 277 287 295 299 306 311 315 319 331 332 334 335 329 319 304 295 287 290 294 297 300 299 292 287 284 280 277 274 274 273 272 267 263
264 256 264 248 228 230 249 261 276 283 290 302 307 298 309 316 316 319 323 320 324 334 332 327 308 294 292 295 299 303 301 298 291 287 281 277 276 274 273 270 268 267 267
254 257 256 241 238 247 259 281 296 316 329 334 340 338 331 322 313 317 321 321 324 330 330 326 315 300 293 295 298 302 304 302 298 297 290 278 274 273 270 269 268 266 267
258 264 258 243 243 258 270 270 303 332 334 334 332 327 321 301 316 315 319 317 318 323 328 322 315 310 307 305 303 301 302 302 300 297 294 287 278 272 270 271 270 267 270
266 272 276 277 280 276 271 276 273 282 300 294 298 307 315 311 311 309 309 317 317 323 326 325 316 316 311 311 310 306 307 310 304 304 303 298 288 280 276 274 275 276 275
277 274 276 274 272 270 276 280 281 280 284 286 289 296 300 308 311 294 303 313 313 318 322 323 317 309 310 309 311 305 310 315 318 318 317 313 302 292 283 281 280 280 283
269 272 272 272 272 276 275 274 276 281 279 282 281 280 291 300 305 302 299 303 305 310 308 313 314 317 308 310 305 305 312 317 316 316 316 316 319 313 300 288 287 283 281
277 281 278 275 274 269 269 272 272 276 279 276 277 286 299 306 301 295 293 295 301 302 306 310 311 312 302 305 306 305 308 308 308 308 312 313 320 316 322 324 303 294 288
262 261 262 266 267 267 268 269 272 275 276 281 287 291 296 305 305 303 292 293 296 295 295 302 307 307 299 297 305 300 306 306 309 312 307 304 309 306 311 316 303 297 275
268 261 260 261 260 264 266 268 270 270 267 284 282 286 293 299 301 301 294 287 288 291 297 303 309 296 294 297 297 297 300 301 299 299 299 297 289 283 295 282 248 291 293
267 264 259 258 259 258 258 255 258 265 279 281 282 290 295 302 304 300 294 290 285 284 287 298 291 294 295 295 299 300 300 297 293 288 289 291 288 290 276 267 268 261 259
270 266 261 262 264 267 266 267 264 276 275 273 278 291 297 304 305 301 292 290 286 282 285 285 288 294 296 305 302 304 308 307 294 292 302 308 300 288 285 278 274 274 275
271 267 263 261 263 268 274 276 279 275 266 274 284 286 302 307 305 297 293 290 286 287 280 289 294 299 299 307 314 321 321 307 297 304 316 322 325 329 325 316 307 294 291
287 285 267 265 271 274 274 276 273 263 273 299 303 307 306 308 304 294 292 291 289 286 290 289 288 307 320 320 341 344 352 4 358 348 346 332 341 356 359 352 341 328 318
309 294 289 277 261 275 273 263 277 296 301 293 293 294 297 300 292 289 291 297 306 312 312 325 16 8 350 353 6 15 18 2 351 337 339 340 331 353 358 342 345 349 346
329 322 306 291 270 274 286 299 296 291 292 291 298 292 289 276 286 295 295 27 56 72 88 86 58 13 6 8 353 353 351 345 341 345 339 300 337 341 345 340 349 348 344
319 319 316 304 292 289 287 290 299 296 293 293 293 291 240 285 338 357 67 101 97 79 63 56 57 27 5 348 343 346 337 338 341 343 355 330 336 331 323 330 342 347 346
326 323 317 311 302 299 301 298 292 295 295 288 283 198 186 115 80 71 68 64 71 86 71 59 50 42 33 20 20 17 18 354 339 333 347 341 322 330 313 328 334 343 345
358 354 351 336 327 328 320 307 297 296 291 178 136 106 101 104 100 80 74 71 62 57 61 52 42 26 16 8 5 2 0 4 0 347 356 339 331 334 311 313 329 342 349
351 360 2 22 29 30 24 27 32 98 112 111 99 91 87 87 64 59 81 73 41 29 30 31 17 7 1 351 353 352 4 7 12 358 357 355 352 344 320 316 334 356 355
64 72 71 68 65 71 69 69 96 125 106 91 88 86 73 53 12 346 336 328 310 316 354 7 11 11 13 0 354 344 358 1 4 2 1 2 357 355 334 343 350 1 5